Zurück zum Katalog

YAOGAN-40 01A

AktivMilitärPO
NORAD 57830·PAYLOAD·🇨🇳 China

Gestartet Sep 10, 2023 von Taiyuan Satellite Launch Center

Loading…

Nächste Überflüge (nächste 24 Stunden)

TLE

AktuellSource: Space-Track

Epoche: Sep 14, 2026, 15:02 UTC

1 57830U 23139A   26257.62707065  .00000102  00000-0  45136-4 0  9992
2 57830  85.9918 219.8136 0001980  84.3391 275.8018 14.12462669155329

Verfolge YAOGAN-40 01A in Echtzeit mit AllMySat

Download on the App Store